Location: Capelle
(50.3413°N, 1.9974°E)
Time: 21:08:37
(UTC+00:00)

SL-4 R/B - Pass Details

Date: 12 January 2026
Orbit: 383 x 518 km, 51.6° (Epoch: 16 February)

Event Time Altitude Azimuth Distance (km) Brightness Sun altitude
Rises 17:01:57 0° 287° (WNW) 2,654 6.3 -7.6°
Reaches altitude 10° 17:04:12 10° 284° (WNW) 1,759 5.5 -8.0°
Maximum altitude 17:08:08 57° 205° (SSW) 608 2.5 -8.5°
Drops below altitude 10° 17:11:58 10° 127° (SE) 1,709 4.2 -9.1°
Sets 17:14:08 0° 123° (ESE) 2,570 5.1 -9.4°
